Time,TemperatureF,DewpointF,PressureIn,WindDirection,WindDirectionDegrees,WindSpeedMPH,WindSpeedGustMPH,Humidity,HourlyPrecipIn,Conditions,Clouds,dailyrainin,SoftwareType,DateUTC
2013-08-07 00:00:00,68.2,61.4,29.11,WSW,240,8.0,11.0,79,0.00,,,0.00,Wunderground v.1.15,2013-08-07 04:00:00,
2013-08-07 00:04:00,68.3,61.5,29.10,SW,234,9.0,11.0,79,0.00,,,0.00,Wunderground v.1.15,2013-08-07 04:04:00,
2013-08-07 00:09:00,68.3,61.5,29.10,WSW,254,9.0,9.0,79,0.00,,,0.00,Wunderground v.1.15,2013-08-07 04:09:00,
2013-08-07 00:14:00,68.2,61.4,29.10,WSW,247,9.0,12.0,79,0.00,,,0.00,Wunderground v.1.15,2013-08-07 04:14:00,
2013-08-07 00:19:00,68.2,61.4,29.10,SW,227,9.0,9.0,79,0.00,,,0.00,Wunderground v.1.15,2013-08-07 04:19:00,
2013-08-07 00:25:00,68.2,61.4,29.10,SW,227,8.0,9.0,79,0.00,,,0.00,Wunderground v.1.15,2013-08-07 04:25:00,
2013-08-07 00:30:00,68.3,61.5,29.11,WSW,240,9.0,9.0,79,0.00,,,0.00,Wunderground v.1.15,2013-08-07 04:30:00,
2013-08-07 00:39:00,68.3,61.5,29.11,WSW,242,9.0,11.0,79,0.00,,,0.00,Wunderground v.1.15,2013-08-07 04:39:00,
2013-08-07 00:44:00,68.2,61.8,29.11,SW,225,9.0,11.0,80,0.00,,,0.00,Wunderground v.1.15,2013-08-07 04:44:00,
2013-08-07 00:49:00,68.1,61.7,29.11,WSW,244,9.0,9.0,80,0.00,,,0.00,Wunderground v.1.15,2013-08-07 04:49:00,
2013-08-07 00:54:00,68.1,62.0,29.11,West,259,8.0,9.0,81,0.00,,,0.00,Wunderground v.1.15,2013-08-07 04:54:00,
2013-08-07 01:00:00,68.0,61.9,29.11,West,262,9.0,9.0,81,0.00,,,0.00,Wunderground v.1.15,2013-08-07 05:00:00,
2013-08-07 01:05:00,67.9,61.9,29.11,WSW,241,9.0,14.0,81,0.00,,,0.00,Wunderground v.1.15,2013-08-07 05:05:00,
2013-08-07 01:10:00,67.9,61.9,29.11,SW,234,8.0,8.0,81,0.00,,,0.00,Wunderground v.1.15,2013-08-07 05:10:00,
2013-08-07 01:19:00,68.1,62.0,29.12,WSW,250,7.0,7.0,81,0.00,,,0.00,Wunderground v.1.15,2013-08-07 05:19:00,
2013-08-07 01:24:00,68.2,62.1,29.12,West,259,7.0,14.0,81,0.00,,,0.00,Wunderground v.1.15,2013-08-07 05:24:00,
2013-08-07 01:34:00,68.1,62.0,29.12,WSW,253,7.0,14.0,81,0.00,,,0.00,Wunderground v.1.15,2013-08-07 05:34:00,
2013-08-07 01:39:00,68.0,61.9,29.12,SW,228,7.0,14.0,81,0.00,,,0.00,Wunderground v.1.15,2013-08-07 05:39:00,
2013-08-07 01:44:00,67.9,61.9,29.12,WSW,256,7.0,14.0,81,0.00,,,0.00,Wunderground v.1.15,2013-08-07 05:44:00,
2013-08-07 01:49:00,67.9,62.2,29.12,SW,236,6.0,14.0,82,0.00,,,0.00,Wunderground v.1.15,2013-08-07 05:49:00,
2013-08-07 01:54:00,68.1,62.4,29.12,West,270,6.0,14.0,82,0.00,,,0.00,Wunderground v.1.15,2013-08-07 05:54:00,
2013-08-07 01:59:00,68.2,62.1,29.12,West,276,7.0,7.0,81,0.00,,,0.00,Wunderground v.1.15,2013-08-07 05:59:00,
2013-08-07 02:09:00,68.3,62.2,29.12,WSW,257,6.0,14.0,81,0.00,,,0.00,Wunderground v.1.15,2013-08-07 06:09:00,
2013-08-07 02:14:00,68.2,62.1,29.12,West,260,6.0,14.0,81,0.00,,,0.00,Wunderground v.1.15,2013-08-07 06:14:00,
2013-08-07 02:19:00,68.3,62.2,29.12,WSW,240,7.0,14.0,81,0.00,,,0.00,Wunderground v.1.15,2013-08-07 06:19:00,
2013-08-07 02:24:00,68.4,62.3,29.12,West,259,7.0,14.0,81,0.00,,,0.00,Wunderground v.1.15,2013-08-07 06:24:00,
2013-08-07 02:29:00,68.4,62.3,29.12,West,269,7.0,7.0,81,0.00,,,0.00,Wunderground v.1.15,2013-08-07 06:29:00,
2013-08-07 02:39:00,68.4,62.3,29.12,WSW,257,7.0,14.0,81,0.00,,,0.00,Wunderground v.1.15,2013-08-07 06:39:00,
2013-08-07 02:44:00,68.4,62.3,29.12,West,270,7.0,14.0,81,0.00,,,0.00,Wunderground v.1.15,2013-08-07 06:44:00,
2013-08-07 02:49:00,68.3,62.2,29.12,WSW,252,7.0,14.0,81,0.00,,,0.00,Wunderground v.1.15,2013-08-07 06:49:00,
2013-08-07 02:54:00,68.1,62.0,29.11,SW,233,7.0,14.0,81,0.00,,,0.00,Wunderground v.1.15,2013-08-07 06:54:00,
2013-08-07 02:59:00,68.1,62.0,29.11,WSW,246,7.0,7.0,81,0.00,,,0.00,Wunderground v.1.15,2013-08-07 06:59:00,
2013-08-07 03:04:00,68.0,61.9,29.11,WSW,238,7.0,8.0,81,0.00,,,0.00,Wunderground v.1.15,2013-08-07 07:04:00,
2013-08-07 03:10:00,67.9,61.9,29.12,WSW,237,7.0,14.0,81,0.00,,,0.00,Wunderground v.1.15,2013-08-07 07:10:00,
2013-08-07 03:20:00,67.6,61.9,29.12,WSW,244,6.0,6.0,82,0.00,,,0.00,Wunderground v.1.15,2013-08-07 07:20:00,
2013-08-07 03:25:00,67.5,61.8,29.12,WSW,244,6.0,8.0,82,0.00,,,0.00,Wunderground v.1.15,2013-08-07 07:25:00,
2013-08-07 03:30:00,67.5,61.8,29.11,WSW,239,6.0,6.0,82,0.00,,,0.00,Wunderground v.1.15,2013-08-07 07:30:00,
2013-08-07 03:35:00,67.3,61.6,29.11,SW,233,6.0,14.0,82,0.00,,,0.00,Wunderground v.1.15,2013-08-07 07:35:00,
2013-08-07 03:45:00,66.9,61.6,29.11,WSW,239,7.0,8.0,83,0.00,,,0.00,Wunderground v.1.15,2013-08-07 07:45:00,
2013-08-07 03:50:00,66.7,61.7,29.11,SW,230,7.0,14.0,84,0.00,,,0.00,Wunderground v.1.15,2013-08-07 07:50:00,
2013-08-07 03:55:00,66.6,61.6,29.11,WSW,238,7.0,14.0,84,0.00,,,0.00,Wunderground v.1.15,2013-08-07 07:55:00,
2013-08-07 04:00:00,66.4,61.4,29.11,WSW,250,7.0,14.0,84,0.00,,,0.00,Wunderground v.1.15,2013-08-07 08:00:00,
2013-08-07 04:05:00,66.2,61.2,29.11,SW,229,8.0,14.0,84,0.00,,,0.00,Wunderground v.1.15,2013-08-07 08:05:00,
2013-08-07 04:10:00,66.1,61.5,29.10,WSW,245,8.0,14.0,85,0.00,,,0.00,Wunderground v.1.15,2013-08-07 08:10:00,
2013-08-07 04:19:00,65.9,61.3,29.10,WSW,244,9.0,14.0,85,0.00,,,0.00,Wunderground v.1.15,2013-08-07 08:19:00,
2013-08-07 04:24:00,65.8,61.2,29.10,WSW,238,9.0,14.0,85,0.00,,,0.00,Wunderground v.1.15,2013-08-07 08:24:00,
2013-08-07 04:29:00,65.8,61.2,29.11,SW,229,8.0,14.0,85,0.00,,,0.00,Wunderground v.1.15,2013-08-07 08:29:00,
2013-08-07 04:34:00,65.8,61.2,29.10,WSW,241,8.0,14.0,85,0.00,,,0.00,Wunderground v.1.15,2013-08-07 08:34:00,
2013-08-07 04:39:00,65.7,61.1,29.11,SW,236,8.0,8.0,85,0.00,,,0.00,Wunderground v.1.15,2013-08-07 08:39:00,
2013-08-07 04:49:00,65.5,61.2,29.10,SW,226,9.0,14.0,86,0.00,,,0.00,Wunderground v.1.15,2013-08-07 08:49:00,
2013-08-07 04:54:00,65.4,61.1,29.10,SW,229,9.0,14.0,86,0.00,,,0.00,Wunderground v.1.15,2013-08-07 08:54:00,
2013-08-07 04:59:00,65.4,61.1,29.10,WSW,242,9.0,9.0,86,0.00,,,0.00,Wunderground v.1.15,2013-08-07 08:59:00,
2013-08-07 05:04:00,65.4,61.1,29.10,WSW,244,8.0,14.0,86,0.00,,,0.00,Wunderground v.1.15,2013-08-07 09:04:00,
2013-08-07 05:09:00,65.3,61.0,29.10,WSW,244,7.0,7.0,86,0.00,,,0.00,Wunderground v.1.15,2013-08-07 09:09:00,
2013-08-07 05:14:00,65.3,61.0,29.10,WSW,243,7.0,14.0,86,0.00,,,0.00,Wunderground v.1.15,2013-08-07 09:14:00,
2013-08-07 05:24:00,65.2,60.9,29.10,WSW,244,7.0,14.0,86,0.00,,,0.00,Wunderground v.1.15,2013-08-07 09:24:00,
2013-08-07 05:29:00,65.2,60.9,29.10,SW,221,7.0,14.0,86,0.00,,,0.00,Wunderground v.1.15,2013-08-07 09:29:00,
2013-08-07 05:34:00,65.2,60.9,29.10,WSW,249,8.0,14.0,86,0.00,,,0.00,Wunderground v.1.15,2013-08-07 09:34:00,
2013-08-07 05:39:00,65.2,60.9,29.11,WSW,245,9.0,14.0,86,0.00,,,0.00,Wunderground v.1.15,2013-08-07 09:39:00,
2013-08-07 05:44:00,65.2,60.9,29.11,West,259,9.0,14.0,86,0.00,,,0.00,Wunderground v.1.15,2013-08-07 09:44:00,
2013-08-07 05:54:00,65.2,60.9,29.11,West,263,7.0,14.0,86,0.00,,,0.00,Wunderground v.1.15,2013-08-07 09:54:00,
2013-08-07 05:59:00,65.2,60.9,29.11,West,263,5.0,14.0,86,0.00,,,0.00,Wunderground v.1.15,2013-08-07 09:59:00,
2013-08-07 06:04:00,65.1,60.8,29.11,WSW,251,4.0,14.0,86,0.00,,,0.00,Wunderground v.1.15,2013-08-07 10:04:00,
2013-08-07 06:09:00,65.0,60.7,29.11,West,280,5.0,14.0,86,0.00,,,0.00,Wunderground v.1.15,2013-08-07 10:09:00,
2013-08-07 06:14:00,65.0,60.7,29.11,West,271,5.0,14.0,86,0.00,,,0.00,Wunderground v.1.15,2013-08-07 10:14:00,
2013-08-07 06:19:00,64.9,60.6,29.11,SW,232,6.0,14.0,86,0.00,,,0.00,Wunderground v.1.15,2013-08-07 10:19:00,
2013-08-07 06:25:00,64.8,60.5,29.11,WSW,252,6.0,14.0,86,0.00,,,0.00,Wunderground v.1.15,2013-08-07 10:25:00,
2013-08-07 06:30:00,64.7,60.7,29.11,WSW,254,6.0,14.0,87,0.00,,,0.00,Wunderground v.1.15,2013-08-07 10:30:00,
2013-08-07 06:39:00,64.6,60.6,29.11,West,270,6.0,6.0,87,0.00,,,0.00,Wunderground v.1.15,2013-08-07 10:39:00,
2013-08-07 06:44:00,64.7,60.7,29.11,WSW,247,6.0,14.0,87,0.00,,,0.00,Wunderground v.1.15,2013-08-07 10:44:00,
2013-08-07 06:49:00,64.7,60.7,29.11,WSW,258,7.0,14.0,87,0.00,,,0.00,Wunderground v.1.15,2013-08-07 10:49:00,
2013-08-07 06:55:00,64.7,60.7,29.11,West,259,7.0,14.0,87,0.00,,,0.00,Wunderground v.1.15,2013-08-07 10:55:00,
2013-08-07 07:00:00,64.8,60.8,29.11,WSW,255,7.0,7.0,87,0.00,,,0.00,Wunderground v.1.15,2013-08-07 11:00:00,
2013-08-07 07:05:00,64.9,60.9,29.11,West,261,7.0,9.0,87,0.00,,,0.00,Wunderground v.1.15,2013-08-07 11:05:00,
2013-08-07 07:10:00,65.1,61.1,29.11,WSW,251,7.0,14.0,87,0.00,,,0.00,Wunderground v.1.15,2013-08-07 11:10:00,
2013-08-07 07:15:00,65.5,61.2,29.10,WSW,242,8.0,14.0,86,0.00,,,0.00,Wunderground v.1.15,2013-08-07 11:15:00,
2013-08-07 07:20:00,66.1,61.8,29.10,West,281,8.0,14.0,86,0.00,,,0.00,Wunderground v.1.15,2013-08-07 11:20:00,
2013-08-07 07:30:00,67.1,62.1,29.11,WSW,252,8.0,8.0,84,0.00,,,0.00,Wunderground v.1.15,2013-08-07 11:30:00,
2013-08-07 07:35:00,67.1,62.1,29.11,West,259,7.0,14.0,84,0.00,,,0.00,Wunderground v.1.15,2013-08-07 11:35:00,
2013-08-07 07:40:00,66.8,61.8,29.11,West,277,7.0,7.0,84,0.00,,,0.00,Wunderground v.1.15,2013-08-07 11:40:00,
2013-08-07 07:45:00,67.1,62.4,29.10,West,273,7.0,9.0,85,0.00,,,0.00,Wunderground v.1.15,2013-08-07 11:45:00,
2013-08-07 07:50:00,67.6,62.6,29.11,West,264,7.0,7.0,84,0.00,,,0.00,Wunderground v.1.15,2013-08-07 11:50:00,
2013-08-07 07:55:00,67.7,62.3,29.11,West,265,8.0,10.0,83,0.00,,,0.00,Wunderground v.1.15,2013-08-07 11:55:00,
2013-08-07 08:05:00,68.4,63.4,29.11,West,265,6.0,14.0,84,0.00,,,0.00,Wunderground v.1.15,2013-08-07 12:05:00,
2013-08-07 08:10:00,69.1,63.7,29.11,WSW,256,4.0,4.0,83,0.00,,,0.00,Wunderground v.1.15,2013-08-07 12:10:00,
2013-08-07 08:15:00,69.9,63.8,29.11,West,275,3.0,14.0,81,0.00,,,0.00,Wunderground v.1.15,2013-08-07 12:15:00,
2013-08-07 08:20:00,69.9,63.8,29.11,WSW,240,5.0,14.0,81,0.00,,,0.00,Wunderground v.1.15,2013-08-07 12:20:00,
2013-08-07 08:25:00,69.8,63.7,29.11,West,261,6.0,14.0,81,0.00,,,0.00,Wunderground v.1.15,2013-08-07 12:25:00,
2013-08-07 08:35:00,70.9,64.1,29.10,West,259,8.0,14.0,79,0.00,,,0.00,Wunderground v.1.15,2013-08-07 12:35:00,
2013-08-07 08:40:00,70.9,63.7,29.10,WSW,245,10.0,10.0,78,0.00,,,0.00,Wunderground v.1.15,2013-08-07 12:40:00,
2013-08-07 08:45:00,70.7,63.9,29.10,WSW,255,8.0,14.0,79,0.00,,,0.00,Wunderground v.1.15,2013-08-07 12:45:00,
2013-08-07 08:50:00,70.4,63.9,29.10,WSW,252,8.0,8.0,80,0.00,,,0.00,Wunderground v.1.15,2013-08-07 12:50:00,
2013-08-07 08:55:00,70.2,63.7,29.09,WSW,240,10.0,13.0,80,0.00,,,0.00,Wunderground v.1.15,2013-08-07 12:55:00,
2013-08-07 09:00:00,70.2,63.7,29.09,WSW,256,9.0,9.0,80,0.00,,,0.00,Wunderground v.1.15,2013-08-07 13:00:00,
2013-08-07 09:09:00,70.0,63.5,29.09,West,264,9.0,14.0,80,0.00,,,0.00,Wunderground v.1.15,2013-08-07 13:09:00,
2013-08-07 09:14:00,70.1,64.0,29.09,West,271,10.0,14.0,81,0.00,,,0.00,Wunderground v.1.15,2013-08-07 13:14:00,
2013-08-07 09:19:00,70.1,64.0,29.09,WSW,240,10.0,14.0,81,0.00,,,0.00,Wunderground v.1.15,2013-08-07 13:19:00,
2013-08-07 09:24:00,70.4,64.3,29.09,West,268,9.0,14.0,81,0.00,,,0.00,Wunderground v.1.15,2013-08-07 13:24:00,
2013-08-07 09:29:00,70.6,64.5,29.09,WSW,251,9.0,14.0,81,0.00,,,0.00,Wunderground v.1.15,2013-08-07 13:29:00,
2013-08-07 09:39:00,70.8,64.7,29.09,West,275,6.0,14.0,81,0.00,,,0.00,Wunderground v.1.15,2013-08-07 13:39:00,
2013-08-07 09:44:00,71.2,65.1,29.09,West,265,7.0,14.0,81,0.00,,,0.00,Wunderground v.1.15,2013-08-07 13:44:00,
2013-08-07 09:50:00,71.6,65.1,29.09,WSW,252,7.0,7.0,80,0.00,,,0.00,Wunderground v.1.15,2013-08-07 13:50:00,
2013-08-07 09:55:00,72.1,65.2,29.08,West,274,7.0,8.0,79,0.00,,,0.00,Wunderground v.1.15,2013-08-07 13:55:00,
2013-08-07 10:00:00,72.6,65.3,29.08,WSW,252,9.0,14.0,78,0.00,,,0.00,Wunderground v.1.15,2013-08-07 14:00:00,
2013-08-07 10:05:00,73.3,65.7,29.08,West,259,10.0,14.0,77,0.00,,,0.00,Wunderground v.1.15,2013-08-07 14:05:00,
2013-08-07 10:10:00,74.0,66.0,29.08,WSW,251,10.0,10.0,76,0.00,,,0.00,Wunderground v.1.15,2013-08-07 14:10:00,
2013-08-07 10:20:00,75.1,66.6,29.08,WNW,292,9.0,9.0,75,0.00,,,0.00,Wunderground v.1.15,2013-08-07 14:20:00,
2013-08-07 10:25:00,75.3,66.4,29.08,WSW,246,8.0,14.0,74,0.00,,,0.00,Wunderground v.1.15,2013-08-07 14:25:00,
2013-08-07 10:30:00,75.5,66.6,29.08,WSW,251,7.0,7.0,74,0.00,,,0.00,Wunderground v.1.15,2013-08-07 14:30:00,
2013-08-07 10:35:00,76.0,66.7,29.08,West,265,8.0,8.0,73,0.00,,,0.00,Wunderground v.1.15,2013-08-07 14:35:00,
2013-08-07 10:40:00,76.0,67.1,29.08,WSW,256,7.0,14.0,74,0.00,,,0.00,Wunderground v.1.15,2013-08-07 14:40:00,
2013-08-07 10:50:00,76.5,66.8,29.08,SW,227,6.0,14.0,72,0.00,,,0.00,Wunderground v.1.15,2013-08-07 14:50:00,
2013-08-07 10:55:00,76.4,67.1,29.07,WSW,238,7.0,14.0,73,0.00,,,0.00,Wunderground v.1.15,2013-08-07 14:55:00,
2013-08-07 11:00:00,76.7,67.8,29.07,West,260,7.0,14.0,74,0.00,,,0.00,Wunderground v.1.15,2013-08-07 15:00:00,
2013-08-07 11:05:00,77.1,67.4,29.07,WSW,242,8.0,14.0,72,0.00,,,0.00,Wunderground v.1.15,2013-08-07 15:05:00,
2013-08-07 11:10:00,76.9,66.8,29.07,West,279,10.0,10.0,71,0.00,,,0.00,Wunderground v.1.15,2013-08-07 15:10:00,
2013-08-07 11:15:00,77.1,67.0,29.08,West,262,9.0,14.0,71,0.00,,,0.00,Wunderground v.1.15,2013-08-07 15:15:00,
2013-08-07 11:25:00,77.4,68.1,29.08,NW,308,5.0,14.0,73,0.00,,,0.00,Wunderground v.1.15,2013-08-07 15:25:00,
2013-08-07 11:30:00,78.0,68.6,29.08,West,277,1.0,1.0,73,0.00,,,0.00,Wunderground v.1.15,2013-08-07 15:30:00,
2013-08-07 11:35:00,78.5,67.9,29.08,NW,308,1.0,14.0,70,0.00,,,0.00,Wunderground v.1.15,2013-08-07 15:35:00,
2013-08-07 11:44:00,79.2,68.6,29.08,WNW,294,1.0,14.0,70,0.00,,,0.00,Wunderground v.1.15,2013-08-07 15:44:00,
2013-08-07 11:49:00,79.1,67.6,29.08,WNW,286,3.0,14.0,68,0.00,,,0.00,Wunderground v.1.15,2013-08-07 15:49:00,
2013-08-07 11:55:00,78.8,67.8,29.08,West,277,3.0,14.0,69,0.00,,,0.00,Wunderground v.1.15,2013-08-07 15:55:00,
2013-08-07 12:00:00,79.0,68.0,29.08,WNW,297,3.0,3.0,69,0.00,,,0.00,Wunderground v.1.15,2013-08-07 16:00:00,
2013-08-07 12:05:00,79.3,67.8,29.07,West,274,3.0,9.0,68,0.00,,,0.00,Wunderground v.1.15,2013-08-07 16:05:00,
2013-08-07 12:10:00,79.3,68.2,29.07,WNW,284,3.0,3.0,69,0.00,,,0.00,Wunderground v.1.15,2013-08-07 16:10:00,
2013-08-07 12:15:00,79.2,68.6,29.07,WNW,295,2.0,14.0,70,0.00,,,0.00,Wunderground v.1.15,2013-08-07 16:15:00,
2013-08-07 12:20:00,78.5,67.5,29.07,WSW,248,5.0,5.0,69,0.00,,,0.00,Wunderground v.1.15,2013-08-07 16:20:00,
2013-08-07 12:30:00,78.6,68.0,29.07,WNW,294,4.0,4.0,70,0.00,,,0.00,Wunderground v.1.15,2013-08-07 16:30:00,
2013-08-07 12:35:00,79.0,68.4,29.06,WNW,282,3.0,14.0,70,0.00,,,0.00,Wunderground v.1.15,2013-08-07 16:35:00,
2013-08-07 12:40:00,79.5,68.4,29.06,WSW,249,2.0,14.0,69,0.00,,,0.00,Wunderground v.1.15,2013-08-07 16:40:00,
2013-08-07 12:45:00,78.6,67.6,29.04,WSW,250,6.0,14.0,69,0.00,,,0.00,Wunderground v.1.15,2013-08-07 16:45:00,
2013-08-07 12:50:00,78.4,67.8,29.05,WNW,286,8.0,8.0,70,0.00,,,0.00,Wunderground v.1.15,2013-08-07 16:50:00,
2013-08-07 12:59:00,78.8,68.2,29.06,West,261,5.0,5.0,70,0.00,,,0.00,Wunderground v.1.15,2013-08-07 16:59:00,
2013-08-07 13:04:00,79.6,69.0,29.06,WNW,292,3.0,14.0,70,0.00,,,0.00,Wunderground v.1.15,2013-08-07 17:04:00,
2013-08-07 13:09:00,79.9,68.8,29.05,West,267,1.0,14.0,69,0.00,,,0.00,Wunderground v.1.15,2013-08-07 17:09:00,
2013-08-07 13:14:00,79.3,68.2,29.05,WNW,288,3.0,14.0,69,0.00,,,0.00,Wunderground v.1.15,2013-08-07 17:14:00,
2013-08-07 13:19:00,79.7,68.2,29.05,West,268,3.0,14.0,68,0.00,,,0.00,Wunderground v.1.15,2013-08-07 17:19:00,
2013-08-07 13:24:00,79.6,68.1,29.06,WNW,294,2.0,14.0,68,0.00,,,0.00,Wunderground v.1.15,2013-08-07 17:24:00,
2013-08-07 13:34:00,79.0,68.0,29.06,WSW,239,3.0,14.0,69,0.00,,,0.00,Wunderground v.1.15,2013-08-07 17:34:00,
2013-08-07 13:39:00,78.6,68.0,29.05,WNW,282,4.0,4.0,70,0.00,,,0.00,Wunderground v.1.15,2013-08-07 17:39:00,
2013-08-07 13:44:00,78.6,68.4,29.05,West,267,5.0,8.0,71,0.00,,,0.00,Wunderground v.1.15,2013-08-07 17:44:00,
2013-08-07 13:49:00,78.7,68.5,29.05,WSW,247,5.0,14.0,71,0.00,,,0.00,Wunderground v.1.15,2013-08-07 17:49:00,
2013-08-07 13:54:00,78.9,69.1,29.05,WSW,243,6.0,14.0,72,0.00,,,0.00,Wunderground v.1.15,2013-08-07 17:54:00,
2013-08-07 14:04:00,79.5,68.9,29.05,SW,234,4.0,11.0,70,0.00,,,0.00,Wunderground v.1.15,2013-08-07 18:04:00,
2013-08-07 14:09:00,79.6,68.5,29.05,WSW,250,6.0,6.0,69,0.00,,,0.00,Wunderground v.1.15,2013-08-07 18:09:00,
2013-08-07 14:14:00,80.3,69.2,29.05,NW,309,5.0,14.0,69,0.00,,,0.00,Wunderground v.1.15,2013-08-07 18:14:00,
2013-08-07 14:19:00,80.9,69.3,29.04,WSW,253,1.0,14.0,68,0.00,,,0.00,Wunderground v.1.15,2013-08-07 18:19:00,
2013-08-07 14:24:00,80.7,69.2,29.04,West,281,2.0,14.0,68,0.00,,,0.00,Wunderground v.1.15,2013-08-07 18:24:00,
2013-08-07 14:29:00,81.0,69.4,29.04,WNW,292,1.0,1.0,68,0.00,,,0.00,Wunderground v.1.15,2013-08-07 18:29:00,
2013-08-07 14:39:00,81.1,68.7,29.03,WNW,287,3.0,14.0,66,0.00,,,0.00,Wunderground v.1.15,2013-08-07 18:39:00,
2013-08-07 14:44:00,81.2,69.6,29.03,WSW,256,5.0,14.0,68,0.00,,,0.00,Wunderground v.1.15,2013-08-07 18:44:00,
2013-08-07 14:49:00,80.9,69.3,29.03,NW,306,5.0,5.0,68,0.00,,,0.00,Wunderground v.1.15,2013-08-07 18:49:00,
2013-08-07 14:54:00,81.1,69.1,29.03,SW,233,4.0,14.0,67,0.00,,,0.00,Wunderground v.1.15,2013-08-07 18:54:00,
2013-08-07 14:59:00,81.8,69.3,29.03,West,263,2.0,2.0,66,0.00,,,0.00,Wunderground v.1.15,2013-08-07 18:59:00,
2013-08-07 15:05:00,82.1,70.1,29.03,West,273,3.0,3.0,67,0.00,,,0.00,Wunderground v.1.15,2013-08-07 19:05:00,
2013-08-07 15:10:00,82.4,69.4,29.03,WNW,292,2.0,2.0,65,0.00,,,0.00,Wunderground v.1.15,2013-08-07 19:10:00,
2013-08-07 15:15:00,82.9,70.4,29.03,WNW,290,0.0,14.0,66,0.00,,,0.00,Wunderground v.1.15,2013-08-07 19:15:00,
2013-08-07 15:20:00,83.5,70.5,29.02,West,261,1.0,14.0,65,0.00,,,0.00,Wunderground v.1.15,2013-08-07 19:20:00,
2013-08-07 15:25:00,83.4,70.4,29.02,WNW,284,1.0,14.0,65,0.00,,,0.00,Wunderground v.1.15,2013-08-07 19:25:00,
2013-08-07 15:30:00,83.2,69.8,29.02,WNW,294,2.0,2.0,64,0.00,,,0.00,Wunderground v.1.15,2013-08-07 19:30:00,
2013-08-07 15:40:00,82.3,69.8,29.02,West,281,1.0,1.0,66,0.00,,,0.00,Wunderground v.1.15,2013-08-07 19:40:00,
2013-08-07 15:45:00,81.2,70.1,29.02,WSW,252,1.0,14.0,69,0.00,,,0.00,Wunderground v.1.15,2013-08-07 19:45:00,
2013-08-07 15:50:00,80.0,69.7,29.01,WSW,239,1.0,1.0,71,0.00,,,0.00,Wunderground v.1.15,2013-08-07 19:50:00,
2013-08-07 15:55:00,79.5,70.1,29.02,WSW,239,1.0,14.0,73,0.00,,,0.00,Wunderground v.1.15,2013-08-07 19:55:00,
2013-08-07 16:00:00,79.5,71.7,29.02,WSW,248,0.0,14.0,77,0.00,,,0.00,Wunderground v.1.15,2013-08-07 20:00:00,
2013-08-07 16:05:00,79.4,71.6,29.02,WSW,248,0.0,14.0,77,0.00,,,0.00,Wunderground v.1.15,2013-08-07 20:05:00,
2013-08-07 16:14:00,79.4,72.3,29.02,WSW,248,0.0,14.0,79,0.00,,,0.00,Wunderground v.1.15,2013-08-07 20:14:00,
2013-08-07 16:19:00,79.4,72.7,29.01,WSW,248,0.0,14.0,80,0.00,,,0.00,Wunderground v.1.15,2013-08-07 20:19:00,
2013-08-07 16:24:00,79.3,71.8,29.01,WSW,248,0.0,14.0,78,0.00,,,0.00,Wunderground v.1.15,2013-08-07 20:24:00,
2013-08-07 16:29:00,79.3,71.5,29.01,WSW,248,0.0,14.0,77,0.00,,,0.00,Wunderground v.1.15,2013-08-07 20:29:00,
2013-08-07 16:34:00,79.6,71.4,29.01,WSW,248,0.0,14.0,76,0.00,,,0.00,Wunderground v.1.15,2013-08-07 20:34:00,
2013-08-07 16:44:00,79.9,70.9,29.00,WSW,248,0.0,14.0,74,0.00,,,0.00,Wunderground v.1.15,2013-08-07 20:44:00,
2013-08-07 16:49:00,80.3,71.6,29.00,WSW,248,0.0,14.0,75,0.00,,,0.00,Wunderground v.1.15,2013-08-07 20:49:00,
2013-08-07 16:54:00,80.3,71.6,29.00,WSW,248,0.0,14.0,75,0.00,,,0.00,Wunderground v.1.15,2013-08-07 20:54:00,
2013-08-07 16:59:00,80.3,72.4,29.00,WSW,248,0.0,14.0,77,0.00,,,0.00,Wunderground v.1.15,2013-08-07 20:59:00,
2013-08-07 17:04:00,80.2,71.9,29.00,WSW,248,0.0,14.0,76,0.00,,,0.00,Wunderground v.1.15,2013-08-07 21:04:00,
2013-08-07 17:09:00,80.2,71.9,29.00,WSW,248,0.0,14.0,76,0.00,,,0.00,Wunderground v.1.15,2013-08-07 21:09:00,
2013-08-07 17:19:00,80.5,72.2,29.00,WSW,248,0.0,14.0,76,0.00,,,0.00,Wunderground v.1.15,2013-08-07 21:19:00,
2013-08-07 17:24:00,80.9,73.0,29.00,WSW,248,0.0,14.0,77,0.00,,,0.00,Wunderground v.1.15,2013-08-07 21:24:00,
2013-08-07 17:29:00,81.1,72.8,29.02,WNW,288,0.0,14.0,76,0.00,,,0.00,Wunderground v.1.15,2013-08-07 21:29:00,
2013-08-07 17:34:00,79.4,70.8,29.02,WNW,287,3.0,14.0,75,0.00,,,0.00,Wunderground v.1.15,2013-08-07 21:34:00,
2013-08-07 17:39:00,76.9,69.1,29.01,WSW,257,5.0,5.0,77,0.00,,,0.00,Wunderground v.1.15,2013-08-07 21:39:00,
2013-08-07 17:49:00,73.5,68.4,29.00,WSW,244,4.0,14.0,84,0.00,,,0.00,Wunderground v.1.15,2013-08-07 21:49:00,
2013-08-07 17:54:00,73.1,68.7,29.00,WSW,257,5.0,14.0,86,0.00,,,0.00,Wunderground v.1.15,2013-08-07 21:54:00,
2013-08-07 17:59:00,73.1,69.0,29.00,West,270,4.0,14.0,87,0.00,,,0.00,Wunderground v.1.15,2013-08-07 21:59:00,
2013-08-07 18:04:00,73.4,69.3,29.00,WSW,245,5.0,14.0,87,0.00,,,0.00,Wunderground v.1.15,2013-08-07 22:04:00,
2013-08-07 18:09:00,73.7,69.9,29.00,WSW,255,5.0,5.0,88,0.00,,,0.00,Wunderground v.1.15,2013-08-07 22:09:00,
2013-08-07 18:14:00,74.2,70.4,29.00,WSW,254,5.0,14.0,88,0.00,,,0.00,Wunderground v.1.15,2013-08-07 22:14:00,
2013-08-07 18:24:00,74.4,70.6,29.00,West,269,5.0,14.0,88,0.00,,,0.00,Wunderground v.1.15,2013-08-07 22:24:00,
2013-08-07 18:29:00,74.7,70.9,29.00,WSW,256,3.0,3.0,88,0.00,,,0.00,Wunderground v.1.15,2013-08-07 22:29:00,
2013-08-07 18:34:00,75.0,70.9,28.99,WSW,248,3.0,5.0,87,0.00,,,0.00,Wunderground v.1.15,2013-08-07 22:34:00,
2013-08-07 18:39:00,75.2,71.1,28.99,SW,232,4.0,4.0,87,0.00,,,0.00,Wunderground v.1.15,2013-08-07 22:39:00,
2013-08-07 18:44:00,75.4,71.3,28.99,SW,226,3.0,7.0,87,0.00,,,0.00,Wunderground v.1.15,2013-08-07 22:44:00,
2013-08-07 18:54:00,75.3,71.2,28.99,SW,232,5.0,14.0,87,0.00,,,0.00,Wunderground v.1.15,2013-08-07 22:54:00,
2013-08-07 18:59:00,75.4,70.9,28.99,WSW,247,5.0,14.0,86,0.00,,,0.00,Wunderground v.1.15,2013-08-07 22:59:00,
2013-08-07 19:04:00,75.2,70.7,28.99,SW,224,6.0,14.0,86,0.00,,,0.00,Wunderground v.1.15,2013-08-07 23:04:00,
2013-08-07 19:09:00,75.0,70.9,28.99,SW,228,7.0,7.0,87,0.00,,,0.00,Wunderground v.1.15,2013-08-07 23:09:00,
2013-08-07 19:14:00,74.9,70.8,28.99,SW,234,6.0,14.0,87,0.00,,,0.00,Wunderground v.1.15,2013-08-07 23:14:00,
2013-08-07 19:19:00,74.8,71.0,28.99,WSW,251,5.0,14.0,88,0.00,,,0.00,Wunderground v.1.15,2013-08-07 23:19:00,
2013-08-07 19:25:00,74.7,70.9,28.99,West,268,4.0,14.0,88,0.00,,,0.00,Wunderground v.1.15,2013-08-07 23:25:00,
2013-08-07 19:30:00,74.7,70.9,28.99,West,274,1.0,1.0,88,0.00,,,0.00,Wunderground v.1.15,2013-08-07 23:30:00,
2013-08-07 19:39:00,74.8,71.0,28.99,SW,233,1.0,1.0,88,0.00,,,0.00,Wunderground v.1.15,2013-08-07 23:39:00,
2013-08-07 19:44:00,74.7,70.9,28.99,West,264,2.0,5.0,88,0.00,,,0.00,Wunderground v.1.15,2013-08-07 23:44:00,
2013-08-07 19:49:00,74.6,70.8,28.99,WSW,238,2.0,14.0,88,0.00,,,0.00,Wunderground v.1.15,2013-08-07 23:49:00,
2013-08-07 19:55:00,74.5,71.0,28.99,West,264,3.0,14.0,89,0.00,,,0.00,Wunderground v.1.15,2013-08-07 23:55:00,
2013-08-07 20:00:00,74.5,71.0,28.99,West,267,1.0,1.0,89,0.00,,,0.00,Wunderground v.1.15,2013-08-08 00:00:00,
2013-08-07 20:05:00,74.5,71.0,28.99,WSW,250,1.0,2.0,89,0.00,,,0.00,Wunderground v.1.15,2013-08-08 00:05:00,
2013-08-07 20:10:00,74.5,71.4,28.99,WSW,253,1.0,14.0,90,0.00,,,0.00,Wunderground v.1.15,2013-08-08 00:10:00,
2013-08-07 20:15:00,74.5,71.4,29.00,WSW,250,2.0,14.0,90,0.00,,,0.00,Wunderground v.1.15,2013-08-08 00:15:00,
2013-08-07 20:20:00,74.4,71.3,28.99,WSW,255,2.0,14.0,90,0.00,,,0.00,Wunderground v.1.15,2013-08-08 00:20:00,
2013-08-07 20:30:00,74.2,71.4,29.00,WSW,256,4.0,14.0,91,0.00,,,0.00,Wunderground v.1.15,2013-08-08 00:30:00,
2013-08-07 20:35:00,74.2,71.4,28.99,West,263,4.0,14.0,91,0.00,,,0.00,Wunderground v.1.15,2013-08-08 00:35:00,
2013-08-07 20:40:00,74.0,71.2,29.00,West,263,3.0,3.0,91,0.00,,,0.00,Wunderground v.1.15,2013-08-08 00:40:00,
2013-08-07 20:45:00,74.0,71.2,29.00,West,262,2.0,4.0,91,0.00,,,0.00,Wunderground v.1.15,2013-08-08 00:45:00,
2013-08-07 20:50:00,74.0,71.2,29.00,WSW,244,3.0,14.0,91,0.00,,,0.00,Wunderground v.1.15,2013-08-08 00:50:00,
2013-08-07 20:55:00,73.9,71.1,29.00,WSW,242,3.0,14.0,91,0.00,,,0.00,Wunderground v.1.15,2013-08-08 00:55:00,
2013-08-07 21:04:00,74.0,71.5,29.01,WSW,250,2.0,5.0,92,0.00,,,0.00,Wunderground v.1.15,2013-08-08 01:04:00,
2013-08-07 21:09:00,74.0,71.5,29.01,WSW,254,2.0,14.0,92,0.00,,,0.00,Wunderground v.1.15,2013-08-08 01:09:00,
2013-08-07 21:14:00,74.1,71.6,29.01,WSW,254,2.0,14.0,92,0.00,,,0.00,Wunderground v.1.15,2013-08-08 01:14:00,
2013-08-07 21:19:00,74.1,71.6,29.01,WSW,254,0.0,14.0,92,0.00,,,0.00,Wunderground v.1.15,2013-08-08 01:19:00,
2013-08-07 21:24:00,74.1,71.6,29.01,WSW,247,1.0,14.0,92,0.00,,,0.00,Wunderground v.1.15,2013-08-08 01:24:00,
2013-08-07 21:34:00,74.0,71.5,29.01,WNW,288,3.0,14.0,92,0.00,,,0.00,Wunderground v.1.15,2013-08-08 01:34:00,
2013-08-07 21:39:00,74.0,71.5,29.02,West,265,1.0,1.0,92,0.00,,,0.00,Wunderground v.1.15,2013-08-08 01:39:00,
2013-08-07 21:44:00,73.9,71.4,29.02,WNW,284,0.0,14.0,92,0.00,,,0.00,Wunderground v.1.15,2013-08-08 01:44:00,
2013-08-07 21:49:00,73.9,71.4,29.02,WNW,293,0.0,14.0,92,0.00,,,0.00,Wunderground v.1.15,2013-08-08 01:49:00,
2013-08-07 21:54:00,73.9,71.1,29.02,WNW,296,0.0,14.0,91,0.00,,,0.00,Wunderground v.1.15,2013-08-08 01:54:00,
2013-08-07 21:59:00,73.8,71.0,29.02,WNW,300,0.0,14.0,91,0.00,,,0.00,Wunderground v.1.15,2013-08-08 01:59:00,
2013-08-07 22:09:00,73.7,70.6,29.02,WNW,296,1.0,1.0,90,0.00,,,0.00,Wunderground v.1.15,2013-08-08 02:09:00,
2013-08-07 22:14:00,73.6,70.5,29.02,WNW,288,0.0,3.0,90,0.00,,,0.00,Wunderground v.1.15,2013-08-08 02:14:00,
2013-08-07 22:19:00,73.5,70.4,29.03,WNW,292,0.0,14.0,90,0.00,,,0.00,Wunderground v.1.15,2013-08-08 02:19:00,
2013-08-07 22:24:00,73.4,70.3,29.03,WNW,290,0.0,14.0,90,0.00,,,0.00,Wunderground v.1.15,2013-08-08 02:24:00,
2013-08-07 22:29:00,73.3,70.2,29.03,WNW,286,0.0,14.0,90,0.00,,,0.00,Wunderground v.1.15,2013-08-08 02:29:00,
2013-08-07 22:39:00,73.1,70.0,29.03,North,360,1.0,14.0,90,0.00,,,0.00,Wunderground v.1.15,2013-08-08 02:39:00,
2013-08-07 22:44:00,73.0,69.9,29.03,West,273,1.0,14.0,90,0.00,,,0.01,Wunderground v.1.15,2013-08-08 02:44:00,
2013-08-07 22:49:00,72.9,69.8,29.04,WNW,282,1.0,1.0,90,0.00,,,0.01,Wunderground v.1.15,2013-08-08 02:49:00,
2013-08-07 22:54:00,72.8,69.7,29.04,NW,305,0.0,14.0,90,0.00,,,0.01,Wunderground v.1.15,2013-08-08 02:54:00,
2013-08-07 22:59:00,72.6,69.5,29.03,WNW,292,0.0,14.0,90,0.00,,,0.01,Wunderground v.1.15,2013-08-08 02:59:00,
2013-08-07 23:04:00,72.5,69.4,29.04,WNW,290,0.0,14.0,90,0.00,,,0.01,Wunderground v.1.15,2013-08-08 03:04:00,
2013-08-07 23:10:00,72.4,69.3,29.04,WNW,285,1.0,14.0,90,0.00,,,0.01,Wunderground v.1.15,2013-08-08 03:10:00,
2013-08-07 23:19:00,72.2,69.1,29.03,WNW,296,2.0,14.0,90,0.00,,,0.01,Wunderground v.1.15,2013-08-08 03:19:00,
2013-08-07 23:24:00,72.1,69.0,29.03,WNW,294,2.0,14.0,90,0.00,,,0.01,Wunderground v.1.15,2013-08-08 03:24:00,
2013-08-07 23:29:00,72.0,68.9,29.03,WNW,295,1.0,1.0,90,0.00,,,0.01,Wunderground v.1.15,2013-08-08 03:29:00,
2013-08-07 23:34:00,71.9,68.8,29.04,WNW,296,0.0,14.0,90,0.00,,,0.01,Wunderground v.1.15,2013-08-08 03:34:00,
2013-08-07 23:40:00,71.7,68.6,29.04,WNW,298,1.0,14.0,90,0.00,,,0.01,Wunderground v.1.15,2013-08-08 03:40:00,
2013-08-07 23:45:00,71.6,68.5,29.04,WNW,289,1.0,14.0,90,0.00,,,0.01,Wunderground v.1.15,2013-08-08 03:45:00,
2013-08-07 23:54:00,71.5,68.4,29.04,WNW,285,1.0,14.0,90,0.00,,,0.01,Wunderground v.1.15,2013-08-08 03:54:00,
2013-08-07 23:59:00,71.4,68.3,29.04,WNW,291,2.0,4.0,90,0.00,,,0.00,Wunderground v.1.15,2013-08-08 03:59:00,